Regional Weather Roundup
Issued by NWS

Home | Current Version | Previous Version | Graphics & Text | Print | Product List | Glossary On
Versions: 1 2 3 4 5 6 7 8 9 10 11 12 13 14 15 16 17 18 19 20 21 22 23 24 25 26 27 28 29 30 31 32 33 34 35 36 37 38 39 40 41 42 43 44 45 46 47 48 49 50
517
ASUS43 KFSD 251102
RWRSD

WEATHER ROUNDUP FOR SOUTH DAKOTA
NATIONAL WEATHER SERVICE SIOUX FALLS SD
600 AM CDT SAT MAR 25 2017

NOTE: "FAIR" INDICATES FEW OR NO CLOUDS BELOW 12,000 FEET WITH NO
SIGNIFICANT WEATHER AND/OR OBSTRUCTIONS TO VISIBILITY.


SDZ001>005-009-010-012>017-251200-
NORTHWEST AND NORTH CENTRAL SOUTH DAKOTA

CITY           SKY/WX    TMP DP  RH WIND       PRES   REMARKS
BUFFALO          N/A     38  31  76 S14       29.82F
FAITH            N/A     31  31 100 SE17      29.96F WCI  19
MOBRIDGE       CLOUDY    30  27  88 SE13      30.04S FOG     WCI  20
$$

SDZ012>016-024>037-041>051-057-063-072>074-251200-
SOUTHWEST AND SOUTH CENTRAL SOUTH DAKOTA

CITY           SKY/WX    TMP DP  RH WIND       PRES   REMARKS
RAPID CTY ARPT CLOUDY    34  27  75 S12       29.94F WCI  25
PIERRE         FOG       32  31  96 SE9       30.08R VSB 3/4 WCI  24
CUSTER         CLOUDY    32  23  69 SW5       29.97F WCI  27
ELLSWORTH AFB  CLOUDY    39  29  66 S14       29.92F
PHILIP         CLOUDY    27  25  92 E6        30.03S WCI  20
PINE RIDGE     CLOUDY    37  30  75 CALM      30.01F
SPEARFISH      FAIR      46  27  46 N5G13     29.88R
WINNER         FOG       32  31  96 SE12      30.07F VSB 1/4 WCI  23
$$

SDZ004>011-016>023-039-040-251200-
NORTHEAST SOUTH DAKOTA

CITY           SKY/WX    TMP DP  RH WIND       PRES   REMARKS
ABERDEEN       CLOUDY    29  26  89 E5        30.14S WCI  24
WATERTOWN      CLOUDY    32  30  92 E9        30.10F WCI  24
BROOKINGS      CLOUDY    32  30  92 E14       30.11S WCI  22
SISSETON         N/A     29  28  96 CALM      30.15S
$$

SDZ017-020-022-023-036>040-048>070-251200-
SOUTHEAST SOUTH DAKOTA

CITY           SKY/WX    TMP DP  RH WIND       PRES   REMARKS
SIOUX FALLS    CLOUDY    35  34  96 NE15      30.11R FOG     WCI  25
HURON          CLOUDY    35  32  88 E7        30.11F WCI  29
CHAMBERLAIN    CLOUDY    35  35  99 E6        30.09F
MITCHELL       CLOUDY    35  32  88 E10       30.13R WCI  27
YANKTON        CLOUDY    36  34  93 NE13      30.10R
$$

ABBREVIATIONS USED IN REMARKS
   TC - TEMPERATURE IN CELSIUS
  WCI - WIND CHILL INDEX
   HX - HEAT INDEX
  VSB - VISIBILITY





USA.gov is the U.S. government's official web portal to all federal, state and local government web resources and services.